�N����,����,����,����,����,�C��,���x,�~����,�S�V����,�ő�u�ԕ���,,,
,,,,,,,,,����,����,����,�N��
yyyy/mm/dd,hh:mm:ss,(16),16����,m/s,��,%,mm,KW/�u,(16),16����,m/s,Time
2013/10/1,1:00:00,16,�k,0.4,14.6,99.6,0,0,14,�k��,1.6,12
2013/10/1,2:00:00,1,�k�k��,0.8,14.5,99.5,0,0,2,�k��,1.7,59
2013/10/1,3:00:00,1,�k�k��,2.1,14.5,98.9,0,0,2,�k��,3.4,51
2013/10/1,4:00:00,3,���k��,2.1,14.5,98.5,0.5,0,2,�k��,3.7,52
2013/10/1,5:00:00,1,�k�k��,0.9,14.3,99.3,3,0,4,��,1.9,51
2013/10/1,6:00:00,16,�k,1.3,14.2,99.5,4,0.01,16,�k,2.7,59
2013/10/1,7:00:00,15,�k�k��,1.1,14.1,98.9,2.5,0.02,1,�k�k��,3.2,8
2013/10/1,8:00:00,16,�k,2.1,14.3,98.7,4.5,0.03,1,�k�k��,3.7,53
2013/10/1,9:00:00,16,�k,1.9,14.3,98.2,2.5,0.04,1,�k�k��,3.4,58
2013/10/1,10:00:00,14,�k��,1.9,14.1,97.6,0,0.05,14,�k��,4.6,4
2013/10/1,11:00:00,14,�k��,2.6,14,98.2,0.5,0.06,13,���k��,7.2,15
2013/10/1,12:00:00,15,�k�k��,1.5,14.5,98.2,0,0.08,14,�k��,6.5,28
2013/10/1,13:00:00,16,�k,0.9,14.6,98.4,2,0.07,16,�k,3.5,22
2013/10/1,14:00:00,14,�k��,2.6,14.3,98,1.5,0.05,14,�k��,4.7,53
2013/10/1,15:00:00,15,�k�k��,0.6,14.6,98.6,3,0.03,1,�k�k��,2.7,20
2013/10/1,16:00:00,2,�k��,3,15.4,98.8,3.5,0.02,2,�k��,5.9,49
2013/10/1,17:00:00,2,�k��,3.2,15.4,98.7,1.5,0.01,1,�k�k��,4.9,58
2013/10/1,18:00:00,2,�k��,3,15.2,98.5,2.5,0,1,�k�k��,5.8,56
2013/10/1,19:00:00,15,�k�k��,1.6,14.5,98.6,0.5,0,2,�k��,4.6,1
2013/10/1,20:00:00,14,�k��,2,14.3,98.9,0.5,0,14,�k��,4.5,19
2013/10/1,21:00:00,14,�k��,2,14.3,99.2,0.5,0,14,�k��,3.5,54
2013/10/1,22:00:00,14,�k��,2.3,14.3,99.3,0.5,0,14,�k��,4.3,58
2013/10/1,23:00:00,14,�k��,2.3,14.2,99.3,0.5,0,14,�k��,3.8,57
2013/10/1,0:00:00,14,�k��,1.6,14.1,99.2,0,0,14,�k��,3.9,16
2013/10/2,1:00:00,15,�k�k��,0.8,14.1,99.2,0,0,14,�k��,3.7,11
2013/10/2,2:00:00,14,�k��,2.3,14.1,99.4,0.5,0,14,�k��,5.1,59
2013/10/2,3:00:00,15,�k�k��,0.9,14.1,99.2,0.5,0,13,���k��,4.8,0
2013/10/2,4:00:00,14,�k��,1.2,14.2,98.1,0,0,15,�k�k��,2.8,37
2013/10/2,5:00:00,15,�k�k��,1.1,14.2,98.5,0,0,15,�k�k��,2.3,59
2013/10/2,6:00:00,14,�k��,1.4,14.2,98.7,0,0.02,14,�k��,2.6,46
2013/10/2,7:00:00,15,�k�k��,0.3,14.9,96.9,0,0.06,15,�k�k��,3.6,13
2013/10/2,8:00:00,14,�k��,1.6,16,94.4,0,0.2,13,���k��,2.9,42
2013/10/2,9:00:00,15,�k�k��,1.3,17.1,92.4,0,0.28,14,�k��,2.7,17
2013/10/2,10:00:00,3,���k��,2.5,18.2,90,0,0.32,2,�k��,3.8,50
2013/10/2,11:00:00,5,���쓌,3.5,17.1,91.9,0,0.3,5,���쓌,5.4,34
2013/10/2,12:00:00,6,�쓌,3.3,17.5,90.1,0,0.36,5,���쓌,5.5,4
2013/10/2,13:00:00,5,���쓌,3.2,18.1,88.9,0,0.41,6,�쓌,5,38
2013/10/2,14:00:00,5,���쓌,1.7,18.3,87.5,0,0.43,6,�쓌,4.6,12
2013/10/2,15:00:00,6,�쓌,1.9,17.2,90.4,0,0.26,5,���쓌,3.3,10
2013/10/2,16:00:00,8,��,0.9,16.5,93.7,0,0.09,8,��,3,31
2013/10/2,17:00:00,11,���쐼,1.3,16,97,0,0.02,7,��쓌,1.7,8
2013/10/2,18:00:00,14,�k��,0.5,15.9,98.1,0.5,0,11,���쐼,1.5,0
2013/10/2,19:00:00,14,�k��,1,15.7,98.9,8,0,14,�k��,1.9,57
2013/10/2,20:00:00,15,�k�k��,0.9,15.7,99.3,4.5,0,15,�k�k��,1.7,4
2013/10/2,21:00:00,13,���k��,1.3,15.8,99.5,2,0,14,�k��,2.1,51
2013/10/2,22:00:00,14,�k��,1.5,15.9,99.5,2,0,14,�k��,3.8,54
2013/10/2,23:00:00,13,���k��,2.6,16,99.2,2,0,14,�k��,4.2,13
2013/10/2,0:00:00,10,�쐼,1.4,16.1,98.5,1,0,15,�k�k��,6.2,39
2013/10/3,1:00:00,11,���쐼,1.3,15.9,98.8,0,0,11,���쐼,2.2,49
2013/10/3,2:00:00,14,�k��,0.9,16,98.7,0,0,14,�k��,3.9,29
2013/10/3,3:00:00,14,�k��,1.1,16.1,97.6,0,0,14,�k��,4,17
2013/10/3,4:00:00,10,�쐼,1.9,15.9,98.4,0,0,11,���쐼,3.5,40
2013/10/3,5:00:00,11,���쐼,1,14.8,98.4,0,0,11,���쐼,4.3,10
2013/10/3,6:00:00,12,��,1.5,14.4,99.7,0,0.01,12,��,2.2,56
2013/10/3,7:00:00,10,�쐼,0.5,16.3,99.9,0,0.09,12,��,2,22
2013/10/3,8:00:00,11,���쐼,2.5,19.3,84.3,0,0.3,11,���쐼,5.3,51
2013/10/3,9:00:00,11,���쐼,3.8,22.2,60.4,0,0.49,12,��,7.7,58
2013/10/3,10:00:00,10,�쐼,5,21.5,53.2,0,0.5,13,���k��,8.9,1
2013/10/3,11:00:00,11,���쐼,6.3,22.8,46.1,0,0.76,11,���쐼,10.6,38
2013/10/3,12:00:00,11,���쐼,5.7,22.3,37.2,0,0.79,11,���쐼,12.3,19
2013/10/3,13:00:00,11,���쐼,7.4,21.2,40.6,0,0.71,11,���쐼,12.1,12
2013/10/3,14:00:00,10,�쐼,7.6,19.8,43.6,0,0.65,10,�쐼,13.1,36
2013/10/3,15:00:00,11,���쐼,7.8,18.6,42.3,0,0.51,11,���쐼,11.8,40
2013/10/3,16:00:00,11,���쐼,5.2,17,46.5,0,0.29,11,���쐼,10.4,1
2013/10/3,17:00:00,9,��쐼,1.3,13,63.1,0,0.09,12,��,9.7,18
2013/10/3,18:00:00,7,��쓌,1.1,9.7,81.1,0,0,10,�쐼,3,8
2013/10/3,19:00:00,1,�k�k��,1.3,8.8,83.4,0,0,10,�쐼,2.9,40
2013/10/3,20:00:00,11,���쐼,4.6,11.8,58.8,0,0,12,��,7.8,31
2013/10/3,21:00:00,11,���쐼,4.2,11.5,54.8,0,0,12,��,7.8,16
2013/10/3,22:00:00,11,���쐼,4.2,10.9,51.5,0,0,12,��,7.4,45
2013/10/3,23:00:00,1,�k�k��,1.5,7.1,76.9,0,0,12,��,5.1,1
2013/10/3,0:00:00,13,���k��,1.3,5.1,86.6,0,0,12,��,5.1,27
2013/10/4,1:00:00,13,���k��,1.8,4.1,90.5,0,0,14,�k��,3.6,42
2013/10/4,2:00:00,12,��,1.6,3.5,95.5,0,0,12,��,3.6,56
2013/10/4,3:00:00,12,��,2.5,3.2,95,0,0,12,��,3.4,57
2013/10/4,4:00:00,13,���k��,2.3,2.7,97.1,0,0,12,��,3,42
2013/10/4,5:00:00,13,���k��,1.3,2.8,93,0,0,12,��,5.1,37
2013/10/4,6:00:00,12,��,1.3,3.2,96,0,0.02,12,��,3.3,12
2013/10/4,7:00:00,12,��,1.2,7,84.3,0,0.17,13,���k��,3.5,33
2013/10/4,8:00:00,5,���쓌,0.3,12.2,71.8,0,0.35,13,���k��,1.9,1
2013/10/4,9:00:00,5,���쓌,0.8,14.4,64.9,0,0.53,5,���쓌,2.5,59
2013/10/4,10:00:00,4,��,2,15.1,44.7,0,0.69,5,���쓌,3.5,51
2013/10/4,11:00:00,5,���쓌,2.9,15.1,51.5,0,0.74,5,���쓌,4.9,41
2013/10/4,12:00:00,5,���쓌,3,15.7,53.3,0,0.76,4,��,6.2,19
2013/10/4,13:00:00,7,��쓌,2.6,16.1,47.4,0,0.73,5,���쓌,6.1,36
2013/10/4,14:00:00,6,�쓌,2.5,17.2,44.2,0,0.63,6,�쓌,5.6,20
2013/10/4,15:00:00,4,��,3.2,16.8,61.1,0,0.48,5,���쓌,5.4,25
2013/10/4,16:00:00,5,���쓌,3.5,15.6,62.4,0,0.28,5,���쓌,5,58
2013/10/4,17:00:00,2,�k��,0.8,12.2,76.9,0,0.08,5,���쓌,4.4,4
2013/10/4,18:00:00,13,���k��,1.3,8.3,94,0,0,6,�쓌,2.5,4
2013/10/4,19:00:00,13,���k��,2.4,8.7,93.7,0,0,14,�k��,3.5,59
2013/10/4,20:00:00,13,���k��,2.1,7.2,95.8,0,0,13,���k��,5,18
2013/10/4,21:00:00,13,���k��,2.4,6.5,97.1,0,0,13,���k��,2.9,58
2013/10/4,22:00:00,12,��,2.6,6,97.9,0,0,12,��,4,26
2013/10/4,23:00:00,13,���k��,0.8,6,98,0,0,12,��,2.9,19
2013/10/4,0:00:00,13,���k��,2.3,7,96.1,0,0,14,�k��,3.5,59
2013/10/5,1:00:00,11,���쐼,0.7,5.2,96.7,0,0,14,�k��,3.2,0
2013/10/5,2:00:00,16,�k,2.5,6.8,90.3,0,0,14,�k��,7.1,45
2013/10/5,3:00:00,12,��,2.9,5.7,95.3,0,0,13,���k��,4.6,28
2013/10/5,4:00:00,13,���k��,2.3,7.7,86.6,0,0,13,���k��,4.6,39
2013/10/5,5:00:00,12,��,2.5,7,91.2,0,0,13,���k��,4.5,23
2013/10/5,6:00:00,12,��,1.3,5.7,95.8,0,0.02,12,��,3.6,0
2013/10/5,7:00:00,13,���k��,1.2,9,92,0,0.15,13,���k��,2.3,21
2013/10/5,8:00:00,9,��쐼,0.3,13.9,71.1,0,0.4,12,��,2.1,5
2013/10/5,9:00:00,1,�k�k��,0.5,15.8,73.8,0,0.41,12,��,1.8,19
2013/10/5,10:00:00,4,��,0.7,17,65.4,0,0.46,5,���쓌,2.3,45
2013/10/5,11:00:00,7,��쓌,1.3,16.3,65.5,0,0.43,6,�쓌,2.8,42
2013/10/5,12:00:00,3,���k��,0.9,17.3,64.2,0,0.43,7,��쓌,2.6,10
2013/10/5,13:00:00,6,�쓌,1.4,16.3,68.4,0,0.4,5,���쓌,4.3,30
2013/10/5,14:00:00,7,��쓌,1,15.9,74.2,0,0.28,5,���쓌,2.9,1
2013/10/5,15:00:00,2,�k��,0.3,15.9,75.4,0,0.22,5,���쓌,1.6,21
2013/10/5,16:00:00,6,�쓌,1.1,14.7,86.8,0,0.11,7,��쓌,1.9,56
2013/10/5,17:00:00,11,�É�,0,12.3,94.6,0,0.03,7,��쓌,1.5,19
2013/10/5,18:00:00,12,��,1,10.8,98.1,0,0,13,���k��,1.7,58
2013/10/5,19:00:00,12,��,2.3,10.3,99.3,0,0,12,��,3,52
2013/10/5,20:00:00,12,��,2.4,9.8,99.3,0,0,14,�k��,3.7,20
2013/10/5,21:00:00,12,��,2.5,9.1,99.1,0,0,13,���k��,3.5,14
2013/10/5,22:00:00,12,��,1,9.1,98.9,0,0,13,���k��,3.6,39
2013/10/5,23:00:00,13,���k��,1.4,9.1,98.3,0,0,13,���k��,3.2,47
2013/10/5,0:00:00,13,���k��,1.6,9.6,96.6,0,0,14,�k��,4,27
2013/10/6,1:00:00,13,���k��,1.9,8.4,97.9,0,0,12,��,3.1,39
2013/10/6,2:00:00,13,���k��,1.9,8.4,98.2,0,0,14,�k��,4.2,16
2013/10/6,3:00:00,13,���k��,1.7,8.4,97.7,0,0,13,���k��,3.1,35
2013/10/6,4:00:00,14,�k��,1.8,8.9,93.9,0,0,14,�k��,3.2,53
2013/10/6,5:00:00,13,���k��,2.7,8,96.4,0,0,14,�k��,4,9
2013/10/6,6:00:00,13,���k��,2.7,8.2,93.9,0,0.01,12,��,4.7,9
2013/10/6,7:00:00,13,���k��,1.6,10.5,89,0,0.12,13,���k��,5.1,24
2013/10/6,8:00:00,12,��,1.7,14,81.9,0,0.28,14,�k��,3.3,25
2013/10/6,9:00:00,14,�k��,2.9,18.3,67.9,0,0.44,14,�k��,4.8,50
2013/10/6,10:00:00,2,�k��,1.4,21.4,57,0,0.63,3,���k��,4,42
2013/10/6,11:00:00,3,���k��,2.4,21.7,52,0,0.68,3,���k��,4.7,44
2013/10/6,12:00:00,4,��,4,21.3,54.4,0,0.72,4,��,6.2,1
2013/10/6,13:00:00,3,���k��,2.9,19.7,61.9,0,0.44,4,��,6.6,1
2013/10/6,14:00:00,4,��,2.9,19,65.9,0,0.27,3,���k��,4.5,43
2013/10/6,15:00:00,4,��,1.3,18.1,70.2,0,0.21,4,��,4.5,2
2013/10/6,16:00:00,16,�k,0.3,16.7,82.2,0,0.11,4,��,2.2,14
2013/10/6,17:00:00,13,���k��,0.4,14.1,93,0,0.03,12,��,1.5,42
2013/10/6,18:00:00,14,�k��,0.5,12.4,97.2,0,0,13,���k��,1.6,29
2013/10/6,19:00:00,13,���k��,0.7,11.4,98,0,0,13,���k��,1.6,15
2013/10/6,20:00:00,13,���k��,0.8,12.1,98.8,0,0,12,��,1.6,33
2013/10/6,21:00:00,1,�k�k��,0.6,12.6,98.7,0,0,2,�k��,1.8,41
2013/10/6,22:00:00,1,�k�k��,0.7,12.7,95.3,0,0,16,�k,2.2,44
2013/10/6,23:00:00,1,�k�k��,0.6,12.5,96.1,0,0,2,�k��,2.2,18
2013/10/6,0:00:00,15,�k�k��,0.4,12.4,95,0,0,2,�k��,1.9,27
2013/10/7,1:00:00,14,�k��,1.1,12.3,91.7,0,0,14,�k��,2.4,47
2013/10/7,2:00:00,14,�k��,1.1,12.1,93,0,0,14,�k��,1.8,1
2013/10/7,3:00:00,13,���k��,1.4,12,95.3,0,0,13,���k��,2.3,52
2013/10/7,4:00:00,13,���k��,0.9,12,93.5,0,0,13,���k��,2.1,32
2013/10/7,5:00:00,14,�k��,1.3,11.9,93.6,0,0,14,�k��,1.8,55
2013/10/7,6:00:00,13,���k��,1,10.2,97.3,0,0.01,14,�k��,1.9,4
2013/10/7,7:00:00,14,�k��,0.5,13,90.7,0,0.13,12,��,2,39
2013/10/7,8:00:00,2,�k��,1.3,15.7,82.2,0,0.33,3,���k��,2.5,41
2013/10/7,9:00:00,4,��,1.9,16.7,73,0,0.48,4,��,3.8,39
2013/10/7,10:00:00,5,���쓌,2.3,17.3,70.5,0,0.63,4,��,4.6,56
2013/10/7,11:00:00,5,���쓌,3.2,17.8,69.5,0,0.7,4,��,5.2,25
2013/10/7,12:00:00,6,�쓌,3.2,17.4,70.5,0,0.71,5,���쓌,5.8,57
2013/10/7,13:00:00,6,�쓌,1.3,17.5,71.2,0,0.67,6,�쓌,5.6,36
2013/10/7,14:00:00,7,��쓌,3,17.5,73.4,0,0.57,7,��쓌,6.8,32
2013/10/7,15:00:00,6,�쓌,3.1,17,78,0,0.42,6,�쓌,6.3,24
2013/10/7,16:00:00,7,��쓌,2.1,15.7,85.3,0,0.19,6,�쓌,5.8,15
2013/10/7,17:00:00,7,��쓌,1.1,15.1,91.7,0,0.04,6,�쓌,3.7,38
2013/10/7,18:00:00,8,��,0.9,15.3,93.9,0,0,7,��쓌,3.1,59
2013/10/7,19:00:00,9,��쐼,0.6,15.4,94,0,0,8,��,3.8,36
2013/10/7,20:00:00,9,��쐼,2.5,16,91.8,0,0,9,��쐼,5.1,34
2013/10/7,21:00:00,10,�쐼,1.4,15.4,91.6,0,0,9,��쐼,5.2,8
2013/10/7,22:00:00,13,���k��,1.9,15.1,94,0,0,10,�쐼,3.7,27
2013/10/7,23:00:00,12,��,0.8,14.7,95.7,0,0,13,���k��,2.4,2
2013/10/7,0:00:00,14,�k��,1.9,14.6,95.5,0,0,13,���k��,3.1,59
2013/10/8,1:00:00,14,�k��,1.2,14.7,94.2,0,0,14,�k��,3.2,1
2013/10/8,2:00:00,14,�k��,1.7,14.3,94.7,0,0,14,�k��,4.2,2
2013/10/8,3:00:00,13,���k��,2.6,14.2,95.7,0,0,13,���k��,5.2,58
2013/10/8,4:00:00,13,���k��,2.5,13.5,95.4,0,0,14,�k��,4.7,49
2013/10/8,5:00:00,13,���k��,2,13.2,95.6,0,0,14,�k��,4,48
2013/10/8,6:00:00,12,��,1.8,12.6,97.3,0,0.01,13,���k��,3,2
2013/10/8,7:00:00,15,�k�k��,0.4,13.7,95.8,0,0.07,12,��,2.9,30
2013/10/8,8:00:00,3,���k��,0.5,17.1,90,0,0.21,3,���k��,1.8,46
2013/10/8,9:00:00,13,���k��,0.8,22.8,64.6,0,0.4,10,�쐼,2.8,46
2013/10/8,10:00:00,6,�쓌,2.7,23.9,62.1,0,0.68,11,���쐼,8,8
2013/10/8,11:00:00,4,��,3.5,22.9,65.2,0,0.71,4,��,6.3,12
2013/10/8,12:00:00,3,���k��,2.4,22.5,68.8,0,0.44,4,��,4.5,45
2013/10/8,13:00:00,5,���쓌,2.1,21,72.3,0,0.28,4,��,3.7,11
2013/10/8,14:00:00,5,���쓌,0.7,20.6,73.8,0,0.2,5,���쓌,3.1,4
2013/10/8,15:00:00,11,�É�,0,20.7,74.9,0,0.15,8,��,1.1,28
2013/10/8,16:00:00,11,���쐼,0.9,18.6,91.7,0,0.07,11,���쐼,1.2,58
2013/10/8,17:00:00,2,�k��,0.9,17.3,95.7,0,0.02,2,�k��,1.5,50
2013/10/8,18:00:00,2,�k��,0.8,17,92.7,0,0,1,�k�k��,2.3,17
2013/10/8,19:00:00,13,���k��,0.3,15.4,97.6,0,0,3,���k��,1.7,16
2013/10/8,20:00:00,11,���쐼,0.7,14.7,96.9,0,0,14,�k��,2.3,35
2013/10/8,21:00:00,1,�k�k��,1,14.2,95.5,0,0,16,�k,2.3,28
2013/10/8,22:00:00,2,�k��,1.4,13.6,92.3,0,0,2,�k��,3.2,27
2013/10/8,23:00:00,2,�k��,1.1,13.7,93.6,0,0,1,�k�k��,2.5,37
2013/10/8,0:00:00,1,�k�k��,1,13.7,94.3,0,0,1,�k�k��,2.3,10
2013/10/9,1:00:00,12,��,0.6,13.2,96.7,0,0,3,���k��,2.6,22
2013/10/9,2:00:00,14,�k��,1.6,13.3,95.7,0,0,14,�k��,2.3,54
2013/10/9,3:00:00,15,�k�k��,0.8,13.1,94.5,0,0,15,�k�k��,2.2,8
2013/10/9,4:00:00,1,�É�,0.2,12.4,94.8,0,0,3,���k��,1.9,40
2013/10/9,5:00:00,1,�k�k��,2.9,12.9,89.1,0,0,1,�k�k��,4.6,56
2013/10/9,6:00:00,1,�k�k��,1.7,12.7,91.6,0,0,1,�k�k��,4,2
2013/10/9,7:00:00,2,�k��,1.9,12.7,92.1,0,0.03,16,�k,3.3,46
2013/10/9,8:00:00,16,�k,0.6,13.2,92.4,0,0.06,1,�k�k��,2.8,0
2013/10/9,9:00:00,15,�k�k��,1,13.6,96.1,0.5,0.09,1,�k�k��,2.4,15
2013/10/9,10:00:00,16,�k,1.3,13.1,95.2,1,0.06,2,�k��,2.7,59
2013/10/9,11:00:00,1,�k�k��,1.5,13.1,97,3.5,0.07,16,�k,2.6,18
2013/10/9,12:00:00,16,�k,1.5,12.9,97.8,4.5,0.06,1,�k�k��,3.1,56
2013/10/9,13:00:00,16,�k,1.5,13.1,98.7,5,0.03,1,�k�k��,2.5,0
2013/10/9,14:00:00,16,�k,1.6,13.1,98.3,2,0.04,1,�k�k��,3.2,58
2013/10/9,15:00:00,16,�k,1.6,13.2,97.9,1.5,0.03,16,�k,2.8,56
2013/10/9,16:00:00,15,�k�k��,1.7,13.1,97.9,1.5,0.03,15,�k�k��,4,34
2013/10/9,17:00:00,14,�k��,2.7,12.9,98.1,1.5,0.01,9,��쐼,5.1,51
2013/10/9,18:00:00,14,�k��,3.2,12.8,98.3,0.5,0,15,�k�k��,5.7,55
2013/10/9,19:00:00,14,�k��,3.9,12.7,98.6,0.5,0,14,�k��,6.6,51
2013/10/9,20:00:00,14,�k��,3.4,12.7,98.1,0,0,13,���k��,6.3,30
2013/10/9,21:00:00,14,�k��,3.5,12.5,97.8,0,0,13,���k��,6.1,43
2013/10/9,22:00:00,14,�k��,3.7,12.6,96.8,0,0,14,�k��,7.6,44
2013/10/9,23:00:00,14,�k��,0.4,11.6,96.7,0,0,13,���k��,5.8,26
2013/10/9,0:00:00,13,���k��,1,11.4,97.9,0,0,13,���k��,5,19
2013/10/10,1:00:00,14,�k��,2.1,10.7,98.4,0,0,13,���k��,4.3,50
2013/10/10,2:00:00,14,�k��,1.3,10.4,99.1,0,0,14,�k��,4.3,30
2013/10/10,3:00:00,13,���k��,1.8,9.1,98,0,0,14,�k��,4.1,33
2013/10/10,4:00:00,15,�k�k��,2.4,9.7,98.4,0,0,15,�k�k��,3.9,45
2013/10/10,5:00:00,13,���k��,3.1,8.3,95.2,0,0,13,���k��,5.7,50
2013/10/10,6:00:00,13,���k��,2.1,8.8,96.1,0,0.02,14,�k��,6.2,16
2013/10/10,7:00:00,14,�k��,2.3,12,88.3,0,0.15,14,�k��,5.8,20
2013/10/10,8:00:00,13,���k��,2.5,14,82.5,0,0.35,14,�k��,4.5,17
2013/10/10,9:00:00,14,�k��,1.8,16.4,77.3,0,0.53,14,�k��,4.1,21
2013/10/10,10:00:00,3,���k��,0.5,18.7,65.3,0,0.65,14,�k��,3.6,24
2013/10/10,11:00:00,5,���쓌,3,18,72.8,0,0.72,4,��,4.3,49
2013/10/10,12:00:00,6,�쓌,1.9,16.9,72.7,0,0.74,5,���쓌,5.1,23
2013/10/10,13:00:00,5,�É�,0,16.7,82.1,0,0.69,8,��,3.9,27
2013/10/10,14:00:00,5,�É�,0,16.7,80.9,0,0.59,7,�É�,0,0
2013/10/10,15:00:00,6,�쓌,1.9,16.3,84.9,0,0.43,6,�쓌,3.2,29
2013/10/10,16:00:00,6,�쓌,1.7,15.2,88.8,0,0.24,6,�쓌,2.9,43
2013/10/10,17:00:00,6,�É�,0,11.6,96.1,0,0.05,6,�쓌,1.7,0
2013/10/10,18:00:00,13,���k��,1.2,10.1,99.3,0,0,13,���k��,1.4,56
2013/10/10,19:00:00,13,���k��,1,9.4,99.9,0,0,13,���k��,2.1,46
2013/10/10,20:00:00,13,���k��,0.9,8.6,99.9,0,0,13,���k��,2.5,35
2013/10/10,21:00:00,13,���k��,1,8.2,100,0,0,13,���k��,2.5,45
2013/10/10,22:00:00,13,���k��,1.6,8.2,100,0,0,13,���k��,2.8,26
2013/10/10,23:00:00,13,���k��,1.8,9.8,100,0,0,14,�k��,3.2,22
2013/10/10,0:00:00,13,���k��,1.1,9.7,100,0,0,14,�k��,3.2,39
2013/10/11,1:00:00,14,�k��,2.1,10.4,100,0,0,13,���k��,4.5,20
2013/10/11,2:00:00,14,�k��,2.5,10.2,99.7,0,0,14,�k��,4.3,27
2013/10/11,3:00:00,14,�k��,2.8,10.3,99.4,0,0,13,���k��,5.2,47
2013/10/11,4:00:00,14,�k��,2.3,10.4,99.3,0,0,14,�k��,5.5,23
2013/10/11,5:00:00,14,�k��,1.5,10.6,99.6,0,0,13,���k��,3.4,9
2013/10/11,6:00:00,12,��,1.6,10.8,99.4,0,0.01,14,�k��,4.3,35
2013/10/11,7:00:00,14,�k��,1.4,11.5,99.4,0,0.03,14,�k��,3.1,9
2013/10/11,8:00:00,13,���k��,1.5,12,98.4,0,0.07,14,�k��,2.4,24
2013/10/11,9:00:00,13,���k��,1.6,12.5,98.4,0,0.06,12,��,2.5,59
2013/10/11,10:00:00,13,���k��,0.5,12.7,99.1,3.5,0.03,12,��,3,4
2013/10/11,11:00:00,2,�k��,1.7,13.4,99.3,4,0.1,2,�k��,2.5,57
2013/10/11,12:00:00,6,�쓌,3.9,14.7,99,1,0.12,6,�쓌,7.5,54
2013/10/11,13:00:00,5,���쓌,2,13.7,97.8,1.5,0.06,7,��쓌,6.4,5
2013/10/11,14:00:00,16,�k,2.5,13.5,98.8,5,0.04,5,���쓌,3.9,58
2013/10/11,15:00:00,15,�k�k��,1.5,13.4,99,11,0.02,14,�k��,5,7
2013/10/11,16:00:00,14,�k��,2.9,13.6,99.2,5.5,0.02,14,�k��,5.4,58
2013/10/11,17:00:00,13,���k��,3.6,13.1,98.3,1.5,0.01,14,�k��,8.7,47
2013/10/11,18:00:00,13,���k��,3.6,13,98,0,0,14,�k��,6.6,15
2013/10/11,19:00:00,3,���k��,1.4,12.7,97.8,0.5,0,13,���k��,5.5,15
2013/10/11,20:00:00,16,�k,0.9,12.3,98.9,0,0,12,��,3.6,17
2013/10/11,21:00:00,14,�k��,1.6,12.4,99.4,0,0,13,���k��,2.9,34
2013/10/11,22:00:00,16,�k,1.1,12,99.7,0,0,1,�k�k��,2.2,54
2013/10/11,23:00:00,13,���k��,2.4,12.1,99.7,0,0,13,���k��,4.6,50
2013/10/11,0:00:00,11,���쐼,1.3,11,99.6,0,0,13,���k��,4,22
2013/10/12,1:00:00,13,���k��,0.8,9.8,99.4,0,0,13,���k��,2.2,24
2013/10/12,2:00:00,9,��쐼,3.5,17.4,100,0,0,9,��쐼,6.6,58
2013/10/12,3:00:00,9,��쐼,3.8,18.1,90,0,0,9,��쐼,7.1,56
2013/10/12,4:00:00,13,���k��,1.2,13.1,94.5,0,0,14,�k��,9.5,28
2013/10/12,5:00:00,10,�쐼,7,18.6,71.4,0,0,11,���쐼,11.6,54
2013/10/12,6:00:00,11,���쐼,6.6,18.4,65.2,0,0.01,11,���쐼,14.2,37
2013/10/12,7:00:00,11,���쐼,8.3,18.9,59.1,0,0.11,11,���쐼,14.2,46
2013/10/12,8:00:00,11,���쐼,10.7,20.1,45.5,0,0.33,10,�쐼,19.9,53
2013/10/12,9:00:00,11,���쐼,9.5,20.9,47.2,0,0.5,11,���쐼,17.8,29
2013/10/12,10:00:00,11,���쐼,8.2,20.5,50.2,0,0.63,11,���쐼,16.4,15
2013/10/12,11:00:00,11,���쐼,7.7,21.2,38.6,0,0.71,10,�쐼,17.3,33
2013/10/12,12:00:00,11,���쐼,8,20.4,46.3,0,0.71,11,���쐼,14.8,37
2013/10/12,13:00:00,11,���쐼,8.7,20.7,37.2,0,0.67,12,��,16.9,52
2013/10/12,14:00:00,11,���쐼,7.4,19.7,41.8,0,0.58,12,��,18.6,0
2013/10/12,15:00:00,11,���쐼,6.6,17.9,51.4,0,0.42,10,�쐼,15.2,33
2013/10/12,16:00:00,11,���쐼,6.7,15.4,62.1,0,0.18,12,��,12.3,34
2013/10/12,17:00:00,15,�k�k��,1.6,13.4,63.6,0,0.04,10,�쐼,14,17
2013/10/12,18:00:00,9,��쐼,1.2,12.7,71.2,0,0,14,�k��,5.1,36
2013/10/12,19:00:00,11,���쐼,6.4,13.8,64.5,0,0,11,���쐼,10.3,45
2013/10/12,20:00:00,11,���쐼,4.4,12.8,64.2,0,0,12,��,10.2,30
2013/10/12,21:00:00,12,��,7.3,13.8,52.3,0,0,12,��,12.7,49
2013/10/12,22:00:00,11,���쐼,5,12.9,57.3,0,0,13,���k��,9.6,0
2013/10/12,23:00:00,11,���쐼,4.9,11.9,67,0,0,12,��,8.5,49
2013/10/12,0:00:00,11,���쐼,3.4,10.5,69.2,0,0,11,���쐼,7.2,12
2013/10/13,1:00:00,11,���쐼,4.3,10.1,71.4,0,0,10,�쐼,7.1,58
2013/10/13,2:00:00,11,���쐼,3.3,9.9,69.4,0,0,10,�쐼,6.1,0
2013/10/13,3:00:00,11,���쐼,1.8,8.5,73.9,0,0,12,��,5.9,36
2013/10/13,4:00:00,13,���k��,2.3,7,84.4,0,0,11,���쐼,4.1,44
2013/10/13,5:00:00,13,���k��,1.9,5.3,89.8,0,0,12,��,4.2,47
2013/10/13,6:00:00,4,�É�,0.2,6.9,88.6,0,0.02,13,���k��,2.7,23
2013/10/13,7:00:00,12,��,1.5,9.3,79.1,0,0.11,13,���k��,4.9,1
2013/10/13,8:00:00,4,��,0.5,14.1,62.3,0,0.29,12,��,2,2
2013/10/13,9:00:00,12,��,1.9,15.5,48.6,0,0.51,12,��,4.5,57
2013/10/13,10:00:00,12,��,5.3,17.5,40.4,0,0.65,12,��,9,24
2013/10/13,11:00:00,12,��,6,17.5,45.3,0,0.68,13,���k��,10.3,22
2013/10/13,12:00:00,13,���k��,3.2,17.7,42.3,0,0.62,12,��,9.1,0
2013/10/13,13:00:00,13,���k��,5.4,16.6,47.1,0,0.74,13,���k��,9.7,43
2013/10/13,14:00:00,15,�k�k��,2.5,16,58.8,0,0.51,15,�k�k��,6.5,9
2013/10/13,15:00:00,16,�k,2.9,14.4,64.1,0,0.16,1,�k�k��,7,29
2013/10/13,16:00:00,14,�k��,0.8,13.2,68.3,0,0.18,1,�k�k��,6,10
2013/10/13,17:00:00,15,�k�k��,2.2,12.2,66.6,0,0.03,13,���k��,5.5,20
2013/10/13,18:00:00,14,�k��,2.4,10.7,72.3,0,0,14,�k��,4.7,49
2013/10/13,19:00:00,13,���k��,2.6,7.8,86.7,0,0,14,�k��,4.7,0
2013/10/13,20:00:00,8,��,0.8,5.8,94.5,0,0,12,��,3.9,1
2013/10/13,21:00:00,12,��,1.8,4.6,95.3,0,0,12,��,2.7,56
2013/10/13,22:00:00,14,�k��,1.9,5.7,94.7,0,0,13,���k��,3.5,22
2013/10/13,23:00:00,14,�k��,2.8,6.5,92.2,0,0,13,���k��,4.2,53
2013/10/13,0:00:00,13,���k��,2.8,5.9,88.6,0,0,13,���k��,4.3,53
2013/10/14,1:00:00,13,���k��,1.6,3.4,97.5,0,0,13,���k��,4.1,8
2013/10/14,2:00:00,12,��,2.9,3,96.6,0,0,12,��,4.5,30
2013/10/14,3:00:00,12,��,3.2,2.2,99.1,0,0,12,��,4,57
2013/10/14,4:00:00,13,���k��,3.3,2.7,99.1,0,0,13,���k��,4.1,59
2013/10/14,5:00:00,13,���k��,1.8,1.6,97.4,0,0,13,���k��,4.3,26
2013/10/14,6:00:00,13,���k��,1.9,2.5,99.3,0,0.02,13,���k��,3.5,43
2013/10/14,7:00:00,13,���k��,1.4,5.9,89.5,0,0.15,13,���k��,4.5,17
2013/10/14,8:00:00,13,���k��,1.1,10.1,80.3,0,0.34,13,���k��,3.3,35
2013/10/14,9:00:00,16,�É�,0.1,14.3,67.6,0,0.51,14,�k��,2.5,29
2013/10/14,10:00:00,4,��,2.5,15,66.6,0,0.63,5,���쓌,4.2,58
2013/10/14,11:00:00,4,��,2.8,14.9,67.8,0,0.7,4,��,5,54
2013/10/14,12:00:00,6,�쓌,3.8,15.4,60,0,0.71,6,�쓌,7.4,42
2013/10/14,13:00:00,6,�쓌,4.7,15.2,64,0,0.66,6,�쓌,7.8,36
2013/10/14,14:00:00,6,�쓌,4.3,14.6,64.5,0,0.55,7,��쓌,7.6,41
2013/10/14,15:00:00,6,�쓌,2.7,14.2,72.9,0,0.32,6,�쓌,7.1,21
2013/10/14,16:00:00,10,�É�,0.1,13.3,78.7,0,0.15,7,��쓌,4,8
2013/10/14,17:00:00,11,���쐼,0.4,10,93.6,0,0.03,3,���k��,1,35
2013/10/14,18:00:00,14,�k��,1.3,9.7,96.3,0,0,13,���k��,2.5,55
2013/10/14,19:00:00,8,��,2.3,12.1,70.9,0,0,6,�쓌,4.3,33
2013/10/14,20:00:00,10,�쐼,0.3,11.7,80.8,0,0,6,�쓌,3.3,14
2013/10/14,21:00:00,8,��,5,14.2,83.8,0,0,8,��,9.8,59
2013/10/14,22:00:00,7,��쓌,3.1,14,87.1,0,0,9,��쐼,8.5,2
2013/10/14,23:00:00,6,�쓌,1.6,13.5,92.2,0,0,7,��쓌,5.8,30
2013/10/14,0:00:00,10,�쐼,1.6,11,95.1,0,0,6,�쓌,3.6,13
2013/10/15,1:00:00,9,��쐼,2,14,77.3,0,0,9,��쐼,7.4,40
2013/10/15,2:00:00,13,���k��,0.9,9,91.1,0,0,9,��쐼,4.4,0
2013/10/15,3:00:00,13,���k��,1.1,8.4,95.1,0,0,13,���k��,3.4,32
2013/10/15,4:00:00,9,��쐼,3.4,15.8,70.8,0,0,8,��,7.9,57
2013/10/15,5:00:00,8,��,3.9,16.2,74.5,0,0,7,��쓌,7.4,34
2013/10/15,6:00:00,7,��쓌,4,16.6,75.7,0,0.01,7,��쓌,10.5,41
2013/10/15,7:00:00,7,��쓌,3.3,16.8,77.1,0,0.08,8,��,8.9,16
2013/10/15,8:00:00,7,��쓌,4.8,16.8,75.7,0,0.16,8,��,9.3,58
2013/10/15,9:00:00,6,�쓌,5.6,17.5,73.3,0,0.18,7,��쓌,10.7,57
2013/10/15,10:00:00,10,�쐼,3.6,21.3,56.2,0,0.44,6,�쓌,10.2,5
2013/10/15,11:00:00,8,��,2.6,20.7,65,0,0.62,9,��쐼,8.5,26
2013/10/15,12:00:00,7,��쓌,4.1,20.5,58.5,0,0.65,7,��쓌,7.8,58
2013/10/15,13:00:00,8,��,3.1,20.1,63.1,0,0.6,8,��,9.1,28
2013/10/15,14:00:00,10,�쐼,2.9,20.4,54.6,0,0.37,11,���쐼,7.4,24
2013/10/15,15:00:00,8,��,2.4,18.7,64.3,0,0.09,8,��,5.5,18
2013/10/15,16:00:00,9,��쐼,2.5,17.8,66,0,0.08,9,��쐼,4.4,50
2013/10/15,17:00:00,16,�k,2.3,14.4,78,0,0.02,1,�k�k��,6.3,46
2013/10/15,18:00:00,16,�k,1.5,13.1,74.4,0,0,1,�k�k��,4.7,11
2013/10/15,19:00:00,16,�k,1.6,12.1,73.5,0,0,16,�k,3.6,19
2013/10/15,20:00:00,14,�k��,2,11.9,69.2,0,0,13,���k��,4,57
2013/10/15,21:00:00,14,�k��,2.5,11.4,68.9,0,0,16,�k,5.5,26
2013/10/15,22:00:00,15,�k�k��,1.8,11.5,65.7,0,0,15,�k�k��,5.1,40
2013/10/15,23:00:00,14,�k��,1.3,11.1,67.8,0,0,1,�k�k��,5.1,14
2013/10/15,0:00:00,13,���k��,3.3,10.1,78,0,0,13,���k��,6.3,56
2013/10/16,1:00:00,13,���k��,3.6,8.5,90.4,0,0,13,���k��,6.5,53
2013/10/16,2:00:00,14,�k��,1.1,7.8,93.5,1,0,13,���k��,5.1,20
2013/10/16,3:00:00,15,�k�k��,1.5,7.5,94.2,0.5,0,15,�k�k��,4.2,31
2013/10/16,4:00:00,15,�k�k��,2.1,6.3,94.4,2,0,16,�k,6,34
2013/10/16,5:00:00,15,�k�k��,2.2,5.6,96.1,3,0,15,�k�k��,4.8,13
2013/10/16,6:00:00,15,�k�k��,2.4,5.4,96.6,4.5,0,14,�k��,5.9,52
2013/10/16,7:00:00,15,�k�k��,3.2,5.1,96.2,4.5,0.01,15,�k�k��,7,57
2013/10/16,8:00:00,14,�k��,4.3,4,95.8,4,0.01,14,�k��,8.4,56
2013/10/16,9:00:00,14,�k��,5.4,2.2,96.9,3.5,0.03,15,�k�k��,10.9,34
2013/10/16,10:00:00,14,�k��,3.9,1.1,98.1,7,0.04,14,�k��,9.5,4
2013/10/16,11:00:00,14,�k��,4.7,0.7,99.6,7.5,0.04,14,�k��,8,51
2013/10/16,12:00:00,14,�k��,4.1,0.7,99.6,6,0.03,16,�k,10.1,50
2013/10/16,13:00:00,14,�k��,6.8,0.9,99.3,6.5,0.02,14,�k��,14.7,51
2013/10/16,14:00:00,14,�k��,7,0.9,99.3,4.5,0.04,14,�k��,13.4,40
2013/10/16,15:00:00,14,�k��,8.2,1.6,97.5,6.5,0.05,16,�k,15.9,55
2013/10/16,16:00:00,14,�k��,7.4,2.8,96.4,4,0.03,14,�k��,16.2,32
2013/10/16,17:00:00,14,�k��,6.8,2.8,96.5,3,0.01,13,���k��,15.3,16
2013/10/16,18:00:00,13,���k��,5.2,2.8,95.9,1.5,0,12,��,10.5,49
2013/10/16,19:00:00,14,�k��,4.2,3.9,92.9,1,0,14,�k��,9.7,3
2013/10/16,20:00:00,14,�k��,3.7,4.5,89.7,0,0,13,���k��,9.5,16
2013/10/16,21:00:00,13,���k��,1.5,3.9,89.2,0,0,13,���k��,5.9,0
2013/10/16,22:00:00,13,���k��,2,4.5,88.7,0,0,14,�k��,3.6,32
2013/10/16,23:00:00,14,�k��,2.1,3.7,88.2,0,0,12,��,3.6,16
2013/10/16,0:00:00,14,�k��,1.6,4.5,80.2,0,0,14,�k��,3.5,27
2013/10/17,1:00:00,14,�k��,2,1.3,95.8,0,0,13,���k��,2.8,42
2013/10/17,2:00:00,14,�k��,3,3.3,82.1,0,0,14,�k��,5,55
2013/10/17,3:00:00,13,���k��,1.7,-0.2,96.3,0,0,14,�k��,3.7,1
2013/10/17,4:00:00,14,�k��,2.2,2.1,85.8,0,0,14,�k��,4.9,59
2013/10/17,5:00:00,13,���k��,3,2.1,80.2,0,0,15,�k�k��,6.7,34
2013/10/17,6:00:00,12,��,3.7,0.9,90.2,0,0.01,12,��,4.6,59
2013/10/17,7:00:00,13,���k��,3.2,5.7,64.9,0,0.13,14,�k��,6.5,30